Marshfield, WI

12:51 PM CDT on June 26, 2017 (GMT -0500)
Marshfield Municipal

Weather History for KMFI - November, 2013

Change the Weather History Date:

Monday, November 11, 2013

  Actual Average Record
Temperature  
Mean Temperature 28 °F -  
Max Temperature 37 °F 40 °F 68 °F (1964)
Min Temperature 19 °F 24 °F -1 °F (1986)
Degree Days  
Heating Degree Days 37    
Moisture  
Dew Point 19 °F    
Average Humidity 70    
Maximum Humidity 92    
Minimum Humidity 43    
Precipitation  
Precipitation 0.00 in - - ()
Sea Level Pressure  
Sea Level Pressure 30.27 in    
Wind  
Wind Speed 11 mph (NNW)    
Max Wind Speed 22 mph    
Max Gust Speed 28 mph    
Visibility 8 miles    
Events Rain , Snow    
Averages and records for this station are not official NWS values.
T = Trace of Precipitation, MM = Missing Value Source: NWS Daily Summary

Daily Weather History Graph

Daily Weather History Graph

Search for Another Location

Airport or City:

Trip Planner

Search our weather history database for the weather conditions in past years. The results will help you decide how hot, cold, wet, or windy it might be!

Date:

Astronomy

Nov. 11, 2013 Rise Set
Actual Time 6:52 AM CST 4:36 PM CST
Civil Twilight 6:21 AM CST 5:07 PM CST
Nautical Twilight 5:46 AM CST 5:43 PM CST
Astronomical Twilight 5:11 AM CST 6:17 PM CST
Moon 1:30 PM CST (11/11) 12:22 AM CST (11/11)
Length of Visible Light 10h 46m
Length of Day
9h 44m
Waxing Gibbous, 66% of the Moon is Illuminated
Nov 11
Waxing Gibbous
Nov 17
Full
Nov 25
Last Quarter
Dec 2
New
Dec 9
First Quarter

Hourly Weather History & Observations

Time (CST) Temp. Windchill Dew Point Humidity Pressure Visibility Wind Dir Wind Speed Gust Speed Precip Events Conditions
12:54 AM 37.9 °F 32.7 °F 28.9 °F 70% 30.07 in 10.0 mi WSW 6.9 mph - N/A   Overcast
1:54 AM 37.9 °F 33.5 °F 28.9 °F 70% 30.07 in 10.0 mi West 5.8 mph - N/A   Overcast
2:54 AM 37.0 °F 29.8 °F 30.0 °F 76% 30.07 in 10.0 mi WNW 10.4 mph - 0.00 in Rain Light Rain
3:54 AM 36.0 °F 28.0 °F 30.0 °F 79% 30.08 in 9.0 mi WNW 11.5 mph - 0.00 in Snow Light Snow
4:25 AM 33.8 °F 27.0 °F 30.2 °F 87% 30.05 in 2.5 mi WNW 8.1 mph - 0.00 in Snow Light Snow
4:39 AM 33.8 °F 27.0 °F 30.2 °F 87% 30.07 in 3.0 mi WNW 8.1 mph - 0.00 in Snow Light Snow
4:54 AM 34.0 °F 26.0 °F 32.0 °F 92% 30.11 in 3.0 mi NW 10.4 mph - 0.00 in Snow Light Snow
4:58 AM 33.8 °F 26.4 °F 30.2 °F 87% 30.07 in 2.5 mi NW 9.2 mph - 0.00 in Snow Light Snow
5:09 AM 33.8 °F 26.4 °F 30.2 °F 87% 30.07 in 1.8 mi NW 9.2 mph - 0.00 in Snow Light Snow
5:54 AM 30.9 °F 19.8 °F 27.0 °F 85% 30.14 in 2.0 mi North 16.1 mph 26.5 mph 0.00 in Snow Light Snow
6:08 AM 30.2 °F 19.3 °F 26.6 °F 86% 30.12 in 1.8 mi North 15.0 mph 26.5 mph 0.00 in Snow Light Snow
6:21 AM 28.4 °F 17.5 °F 24.8 °F 86% 30.12 in 2.5 mi North 13.8 mph - 0.00 in Snow Light Snow
6:24 AM 28.4 °F 17.5 °F 24.8 °F 86% 30.12 in 3.0 mi NNW 13.8 mph - 0.00 in Snow Light Snow
6:54 AM 28.9 °F 18.6 °F 25.0 °F 85% 30.18 in 9.0 mi NNW 12.7 mph - 0.00 in   Overcast
7:01 AM 28.4 °F 18.5 °F 24.8 °F 86% 30.14 in 10.0 mi NNW 11.5 mph 20.7 mph N/A   Overcast
7:54 AM 27.0 °F 14.3 °F 19.0 °F 72% 30.23 in 10.0 mi NNE 17.3 mph 24.2 mph N/A   Overcast
8:20 AM 26.6 °F 14.3 °F 17.6 °F 69% 30.20 in 10.0 mi North 16.1 mph 21.9 mph N/A   Overcast
8:54 AM 25.0 °F 12.6 °F 15.1 °F 66% 30.27 in 10.0 mi North 15.0 mph - N/A   Mostly Cloudy
9:54 AM 24.1 °F 9.0 °F 15.1 °F 69% 30.31 in 10.0 mi NNW 21.9 mph 27.6 mph N/A   Clear
10:34 AM 24.8 °F 11.9 °F 15.8 °F 69% 30.27 in 10.0 mi NNW 16.1 mph 24.2 mph N/A   Mostly Cloudy
10:54 AM 24.1 °F 11.0 °F 14.0 °F 65% 30.33 in 10.0 mi North 16.1 mph 24.2 mph N/A   Mostly Cloudy
11:13 AM 24.8 °F 12.4 °F 12.2 °F 59% 30.28 in 10.0 mi North 15.0 mph 25.3 mph N/A   Scattered Clouds
11:54 AM 26.1 °F 12.7 °F 15.1 °F 63% 30.33 in 10.0 mi North 18.4 mph 24.2 mph N/A   Partly Cloudy
12:54 PM 25.0 °F 12.2 °F 10.9 °F 55% 30.35 in 10.0 mi North 16.1 mph - N/A   Clear
1:54 PM 27.0 °F 15.6 °F 12.9 °F 56% 30.36 in 10.0 mi NNW 13.8 mph 21.9 mph N/A   Partly Cloudy
2:54 PM 28.9 °F 17.3 °F 9.0 °F 43% 30.38 in 10.0 mi North 16.1 mph 23.0 mph N/A   Clear
3:54 PM 27.0 °F 16.7 °F 9.0 °F 47% 30.41 in 10.0 mi North 11.5 mph - N/A   Clear
4:54 PM 25.0 °F 14.2 °F 7.0 °F 46% 30.44 in 10.0 mi North 11.5 mph 20.7 mph N/A   Partly Cloudy
5:54 PM 25.0 °F 13.6 °F 8.1 °F 49% 30.48 in 10.0 mi North 12.7 mph - N/A   Partly Cloudy
6:54 PM 25.0 °F 13.1 °F 9.0 °F 51% 30.51 in 10.0 mi NNW 13.8 mph - N/A   Overcast
7:54 PM 23.0 °F 11.7 °F 10.0 °F 58% 30.54 in 10.0 mi NNW 11.5 mph - N/A   Clear
8:54 PM 21.9 °F 10.4 °F 10.9 °F 63% 30.56 in 10.0 mi NNW 11.5 mph - N/A   Clear
9:54 PM 21.0 °F 8.1 °F 10.9 °F 65% 30.60 in 10.0 mi NNW 13.8 mph - N/A   Clear
10:54 PM 19.9 °F 7.3 °F 10.0 °F 65% 30.62 in 10.0 mi NNW 12.7 mph - N/A   Clear
11:54 PM 19.0 °F 6.1 °F 10.0 °F 68% 30.63 in 10.0 mi NW 12.7 mph - N/A   Clear